Location: Peterborough
(44.3091°N, 78.3197°W)
Time: 20:41:55
(UTC-04:00)

Vanguard 1 - All Passes

Search period start: 13 April 2024 00:00
Search period end: 23 April 2024 00:00
Orbit: 653 x 3825 km, 34.2° (Epoch: 13 April)

Date Brightness Start Highest point End Pass type
(mag) Time Alt. Az. Time Alt. Az. Time Alt. Az.
13 Apr - 05:30:42 10° SSW 05:44:41 26° SSE 05:54:17 10° ESE visible
13 Apr - 07:52:40 10° SW 08:06:59 42° S 08:15:11 10° ESE daylight
13 Apr - 10:17:32 10° WSW 10:27:56 42° S 10:33:59 10° ESE daylight
13 Apr - 12:42:21 10° WSW 12:47:09 19° SSW 12:50:49 10° SSE daylight
14 Apr - 03:35:31 10° SSE 03:42:10 12° SE 03:48:01 10° ESE visible
14 Apr - 05:49:29 10° SSW 06:05:03 31° SSE 06:15:09 10° E visible
14 Apr - 08:12:51 10° WSW 08:27:17 46° S 08:35:22 10° ESE daylight
14 Apr - 10:38:08 10° W 10:48:00 39° SSW 10:53:52 10° SE daylight
14 Apr - 13:03:45 10° WSW 13:06:52 13° SW 13:09:30 10° S daylight
15 Apr - 03:50:37 10° S 04:02:28 18° SE 04:11:54 10° ESE visible
15 Apr - 06:08:47 10° SW 06:25:26 37° SSE 06:35:44 10° E daylight
15 Apr - 08:33:14 10° WSW 08:47:34 48° S 08:55:30 10° ESE daylight
15 Apr - 10:58:47 10° W 11:08:00 35° SSW 11:13:38 10° SE daylight
16 Apr - 04:07:53 10° S 04:22:45 24° SSE 04:33:53 10° E visible
16 Apr - 06:28:28 10° SW 06:45:48 43° SSE 06:56:08 10° E daylight
16 Apr - 08:53:45 10° WSW 09:07:48 49° S 09:15:33 10° ESE daylight
16 Apr - 11:19:32 10° W 11:27:54 30° SSW 11:33:15 10° SSE daylight
17 Apr - 04:26:08 10° SSW 04:43:04 30° SSE 04:55:06 10° E visible
17 Apr - 06:48:28 10° SW 07:06:11 47° SSE 07:16:25 10° E daylight
17 Apr - 09:14:22 10° WSW 09:28:00 48° S 09:35:33 10° ESE daylight
17 Apr - 11:40:25 10° W 11:47:41 24° SW 11:52:37 10° SSE daylight
18 Apr - 02:30:08 10° SSE 02:40:11 15° SE 02:49:03 10° ESE visible
18 Apr - 04:45:01 10° SSW 05:03:24 36° SSE 05:15:55 10° E visible
18 Apr - 07:08:43 10° WSW 07:26:32 51° S 07:36:37 10° E daylight
18 Apr - 09:35:02 10° W 09:48:07 46° SSW 09:55:27 10° SE daylight
18 Apr - 12:01:37 10° W 12:07:21 18° SW 12:11:35 10° S daylight
19 Apr - 02:46:07 10° S 03:00:20 21° SE 03:12:11 10° E visible
19 Apr - 05:04:22 10° SW 05:23:46 42° SSE 05:36:29 10° E visible
19 Apr - 07:29:09 10° WSW 07:46:52 54° S 07:56:45 10° ESE daylight
19 Apr - 09:55:47 10° W 10:08:09 41° SSW 10:15:13 10° SE daylight
19 Apr - 12:23:35 10° WSW 12:26:54 13° SW 12:29:41 10° SSW daylight
20 Apr - 03:03:38 10° S 03:20:30 27° SE 03:34:00 10° E visible
20 Apr - 05:24:04 10° SW 05:44:09 47° SSE 05:56:53 10° E visible
20 Apr - 07:49:44 10° WSW 08:07:10 55° S 08:16:49 10° ESE daylight
20 Apr - 10:16:35 10° W 10:28:03 36° SSW 10:34:51 10° SE daylight
21 Apr - 01:14:08 10° SE 01:17:47 11° SE 01:21:22 10° ESE visible
21 Apr - 03:21:59 10° SSW 03:40:42 33° SSE 03:55:10 10° E visible
21 Apr - 05:44:05 10° SW 06:04:33 52° SSE 06:17:11 10° E visible
21 Apr - 08:10:24 10° W 08:27:25 54° S 08:36:49 10° ESE daylight
21 Apr - 10:37:31 10° W 10:47:51 29° SW 10:54:17 10° SSE daylight
22 Apr - 01:26:09 10° SSE 01:37:43 16° SE 01:48:28 10° ESE visible
22 Apr - 03:40:55 10° SSW 04:00:58 39° SSE 04:15:59 10° E visible
22 Apr - 06:04:20 10° WSW 06:24:57 56° S 06:37:26 10° E daylight
22 Apr - 08:31:08 10° W 08:47:36 51° SSW 08:56:44 10° ESE daylight
22 Apr - 10:58:40 10° W 11:07:29 23° SW 11:13:22 10° S daylight
